Погода в Кызыл-Урупе

Россия / Карачаево-Черкесская Республика     44°00′19″N   41°13′16″E
темп.,
°C
ветер,
м/с
пор.,
м/с
влажн.,
%
обл.,
%
осадки,
мм/ч
давл.,
гПа
погр.,
м
17 сентября, пт
пт1700:00+10в229994 0.1 1015101
03:00+9юв1197100 0.1 101519
06:00+10юв1198100 0.0 101420
09:00+12всв0192100 0.1 1014283
12:00+15ссв118177 0.1 1013581
15:00+16с227692 0.4 1014782
18:00+13з009022 0.7 101511
21:00+11з119494 0.7 101511
18 сентября, сб
сб1800:00+12ююз119374 0.0 101512
03:00+9юз11945 0.0 101611
06:00+8ююз22938 0.0 101614
09:00+15юв11765 0.0 1015344
12:00+18св226620 0.1 10141095
15:00+17св137948 1.3 1014526
18:00+15сз1183100 0.5 101411
21:00+13юз118877 0.5 101511
19 сентября, вс
вс1900:00+11ю229386 0.0 101518
03:00+11ююз228770 0.0 101420
06:00+11ююз228275 0.0 101427
09:00+16ююз115768 0.0 1014175
12:00+21с2141100 0.0 1013922
15:00+20ссз4358100 0.0 10141333
18:00+15ююв118480 0.7 101417
21:00+13ю239198 1.4 101555
20 сентября, пн
пн2000:00+10ююз228611 0.0 101526
03:00+10ююз2283100 0.0 101523
06:00+10ююз228162 0.0 101417
09:00+15ю117066 0.0 101491
12:00+20св215263 0.0 1013952
15:00+20св226194 0.4 1012937
18:00+14з0082100 3.0 101311
21:00+12ю219246 4.4 101513
21 сентября, вт
вт2100:00+10зюз11915 0.1 101610
03:00+9ю1192100 0.1 101711
06:00+9сз119434 0.0 101811
09:00+15св11819 0.0 1017355
12:00+15с338443 0.5 1017510
15:00+12с2292100 1.3 1019475
18:00+11св0196100 0.1 1020258
21:00+12ююв1195100 0.1 101975